Wind_Speed
24 26 27 26 24 26 27 27 27 27 26 25 25 26 28 30 31 32 31 30 29 27 26 25 24 23 23 22 22 20 18 18 19 22 22 22 22 20 18 16 14 12 11 10 10 9 9 8 7 7 7 7 7 7 7 6 5 4 4 4 4 3 2
18 19 22 24 25 25 26 28 29 28 26 26 25 26 28 30 30 31 31 31 30 28 27 26 24 23 22 21 21 22 20 18 18 20 23 24 24 22 20 18 16 14 13 12 11 11 11 10 9 8 8 8 9 9 9 8 7 6 6 5 5 3 2
12 15 17 20 22 23 24 26 28 28 27 25 26 27 28 29 30 30 30 30 30 29 29 27 25 24 22 21 21 21 22 20 18 19 22 24 24 24 22 20 19 17 16 14 13 13 12 12 11 11 10 9 9 10 10 10 9 9 8 7 6 4 3
13 14 15 17 20 22 24 25 27 28 26 25 25 25 26 28 29 29 29 29 30 30 29 28 27 25 24 23 22 21 22 22 20 18 19 22 24 24 24 23 21 20 18 16 15 15 14 14 14 13 12 10 10 11 11 11 11 11 10 9 7 6 6
16 16 16 17 18 20 23 24 25 26 26 25 24 24 24 25 27 29 29 29 29 29 29 28 27 27 25 24 23 22 21 21 21 20 19 20 23 24 25 24 23 22 20 18 17 17 17 16 16 14 13 12 11 11 11 11 12 12 12 11 9 8 8
18 19 18 18 18 18 20 22 24 25 25 24 24 23 23 24 26 28 29 29 29 29 29 28 28 28 27 26 24 22 22 21 22 22 21 21 22 24 25 24 24 23 22 20 20 19 19 19 18 16 14 14 13 12 12 12 12 12 12 12 11 10 10
18 19 20 18 17 17 18 20 22 24 25 23 23 24 24 23 24 26 28 29 30 30 30 29 29 29 28 27 25 24 23 22 22 23 23 23 23 23 24 25 25 24 23 23 22 21 21 21 20 18 17 16 15 14 13 13 13 13 13 13 12 12 12
20 20 20 17 14 15 18 20 21 24 26 25 24 25 25 24 23 24 26 28 29 30 30 30 29 29 29 28 27 26 24 23 23 23 24 25 25 24 24 25 25 25 25 24 23 23 22 22 21 20 19 18 17 16 15 14 14 14 14 13 13 13 13
23 24 23 18 15 16 18 20 22 24 27 28 27 26 24 24 23 23 24 26 29 30 30 30 29 29 28 28 28 27 26 25 24 24 24 25 25 26 25 25 24 24 25 24 24 24 24 23 23 22 21 20 19 18 17 16 16 15 15 14 13 13 13
22 27 29 25 20 18 18 19 21 23 26 28 30 28 26 25 23 22 22 24 27 29 29 29 29 28 28 29 28 28 28 26 25 25 25 24 25 26 26 26 25 25 24 23 23 24 25 25 25 24 23 21 20 20 19 18 18 17 16 15 14 14 13
19 25 29 28 24 22 21 20 20 22 24 26 30 31 31 29 26 24 22 22 25 26 28 28 29 29 29 29 29 29 29 28 27 26 25 24 24 24 25 27 27 27 26 24 24 24 24 25 25 25 23 21 21 21 20 20 20 20 19 18 16 16 15
15 21 26 27 26 25 24 23 22 22 22 23 26 30 32 31 30 27 25 23 22 23 25 27 28 28 29 29 30 30 30 29 28 27 25 24 24 23 24 26 28 29 28 27 26 26 25 26 26 25 23 22 21 21 21 21 21 21 21 20 20 19 18
10 16 21 25 26 26 25 25 24 23 22 22 23 26 29 30 30 28 26 24 23 22 23 25 27 28 28 29 30 30 30 30 29 28 27 26 24 24 23 24 26 29 30 29 29 28 28 27 27 26 25 23 22 22 21 21 22 23 23 23 23 22 21
9 10 14 18 22 24 24 24 24 23 23 22 22 23 26 29 30 29 27 24 23 23 23 24 26 27 27 28 29 30 30 30 29 29 28 27 27 26 25 24 25 26 28 30 30 30 29 29 28 28 27 26 25 24 23 23 23 23 24 24 24 24 24
7 8 10 12 15 19 21 21 23 24 23 22 22 23 24 27 30 30 29 27 25 25 24 24 25 26 27 27 29 29 29 29 30 30 29 29 29 27 27 26 25 25 26 28 30 30 30 30 30 30 30 29 28 27 26 26 25 24 24 24 24 25 25
4 5 7 10 12 15 18 20 21 23 23 22 21 22 23 26 28 30 30 29 27 26 25 25 26 26 27 27 27 27 28 28 29 30 30 30 30 29 29 28 27 27 27 27 28 28 29 30 30 31 31 31 30 30 29 29 27 26 24 24 24 24 25
2 3 4 7 11 13 16 18 20 21 22 22 21 21 22 24 26 28 28 29 28 27 26 26 26 26 27 27 27 26 26 27 28 29 30 31 30 30 30 30 30 29 28 28 28 28 28 29 30 31 31 31 31 31 31 30 29 27 26 25 24 24 24
2 1 3 6 9 12 14 17 19 20 20 21 22 22 22 23 24 25 27 28 28 28 28 28 27 27 27 27 27 26 26 27 27 29 30 31 31 32 31 31 32 32 31 30 29 28 29 29 30 30 30 30 31 31 31 30 29 28 27 26 25 25 25
5 3 1 4 7 10 12 14 17 19 20 21 22 23 23 23 23 24 25 27 29 29 30 29 29 28 29 28 28 29 29 30 30 31 31 31 31 31 32 33 34 34 33 32 31 31 31 30 30 30 30 30 30 30 29 29 28 27 27 27 26 26 26
6 5 6 3 2 6 10 12 13 16 19 20 22 23 24 24 24 25 25 26 28 30 30 30 29 29 28 28 28 29 32 34 34 34 34 33 32 31 32 33 34 34 34 34 33 33 32 31 31 31 31 31 30 30 29 28 27 27 27 27 27 27 27
7 3 5 6 2 1 4 8 11 13 16 19 20 22 24 25 25 26 27 28 30 31 32 31 30 28 27 27 28 29 30 32 33 34 34 35 35 34 33 34 35 35 35 34 35 34 33 33 33 32 32 31 31 31 30 28 26 26 27 27 27 27 28
8 8 4 2 3 2 1 3 6 10 13 17 18 20 23 25 25 26 29 32 33 34 33 32 30 30 28 26 27 30 31 29 29 31 32 33 36 36 35 35 34 34 33 33 34 34 34 34 34 34 33 32 32 32 31 28 26 26 26 26 27 28 29
8 10 11 7 1 2 3 2 1 4 8 12 15 19 21 24 25 27 30 34 34 32 30 29 29 31 30 27 27 30 32 30 29 31 31 31 34 36 35 34 33 32 31 31 31 32 33 34 34 34 34 33 34 34 32 29 27 26 26 25 26 27 29
10 10 13 13 9 4 1 1 2 2 4 7 9 14 18 21 22 20 20 24 27 27 26 27 29 31 32 30 29 30 30 30 30 32 34 32 33 34 34 34 33 31 30 30 30 30 31 32 32 33 34 34 34 33 33 31 29 28 27 26 26 28 29
13 12 13 15 15 12 8 5 4 4 3 3 4 8 12 16 16 13 11 13 18 22 24 25 28 31 32 33 32 30 29 29 29 33 35 34 33 33 33 33 33 32 31 30 30 30 30 30 31 32 32 33 33 33 32 31 30 29 29 27 27 28 28
15 15 15 16 18 19 17 15 12 10 8 7 6 6 7 8 9 10 11 12 15 20 23 24 28 31 32 34 34 32 30 29 29 32 34 35 34 34 33 33 33 32 31 31 31 31 31 31 31 31 31 31 32 32 32 31 30 29 29 28 28 29 29
18 17 17 18 20 22 24 23 21 18 14 13 11 7 6 5 5 7 9 10 14 19 22 24 26 28 29 31 32 32 31 30 30 30 32 34 35 34 33 33 32 31 32 32 31 31 31 31 31 31 31 31 31 31 31 30 29 29 29 29 29 29 30
22 21 19 18 19 22 26 27 27 25 22 19 16 12 11 10 8 8 7 8 11 16 19 23 26 26 27 29 29 30 30 28 28 28 28 30 33 35 35 33 31 31 31 31 31 31 31 32 32 31 31 31 31 31 30 29 28 28 28 28 28 29 30
26 25 23 21 20 21 24 27 30 30 28 26 23 19 17 15 13 13 10 7 7 11 15 20 24 25 27 28 28 28 29 28 27 25 24 25 28 31 33 34 33 32 31 31 31 31 32 32 32 32 32 31 31 30 29 27 27 27 26 26 27 28 29
30 29 27 26 24 23 23 24 28 32 34 33 30 27 24 19 17 18 16 11 8 9 12 17 20 24 26 26 24 26 29 29 27 24 22 24 26 27 29 31 33 33 32 31 31 31 32 32 32 33 33 32 31 30 28 27 27 26 25 25 25 26 27
33 32 31 30 28 27 26 25 25 29 35 38 36 34 31 26 22 20 19 16 13 12 14 16 19 23 26 25 22 23 26 27 25 24 24 25 26 26 27 28 31 32 31 30 30 31 32 32 32 33 33 33 32 30 29 28 27 26 25 25 25 25 26
35 35 34 34 32 30 30 29 27 27 31 36 39 39 36 32 28 24 23 22 21 19 18 18 19 21 23 26 24 23 24 25 24 25 27 27 27 27 27 28 31 32 32 31 29 29 31 32 32 33 34 33 33 31 30 29 29 27 26 26 26 25 26
35 36 36 36 35 33 32 32 31 29 29 31 35 39 40 38 34 30 28 28 27 25 24 23 22 21 22 26 26 22 20 21 23 24 26 27 29 29 28 29 32 33 33 32 28 26 29 32 33 34 34 34 33 32 32 31 30 28 27 27 26 25 25
33 34 36 37 37 35 34 34 33 32 30 29 31 35 39 42 41 37 33 32 31 30 29 28 26 24 23 25 28 26 20 18 20 24 24 24 26 26 25 26 28 30 29 27 24 24 27 30 32 34 34 34 33 33 33 34 32 30 28 28 28 27 27
33 32 34 35 36 36 35 34 33 33 31 29 30 32 35 39 42 42 38 35 33 33 32 31 30 29 26 24 27 29 25 19 19 22 25 25 25 25 25 26 27 27 25 23 22 23 25 28 31 33 33 32 32 32 33 34 34 32 31 31 32 31 31
37 33 32 33 35 36 35 33 32 33 32 30 30 31 31 33 38 42 42 40 37 35 34 34 34 33 31 28 26 26 24 21 19 21 24 28 28 27 26 27 27 26 24 22 21 23 24 27 30 31 32 32 32 31 31 33 33 32 32 34 34 34 33
41 37 34 33 34 36 35 33 31 32 32 30 29 30 31 32 34 38 41 43 42 39 37 37 36 36 35 33 31 28 25 23 21 20 22 26 30 31 29 28 27 26 24 22 22 22 24 26 29 31 32 34 33 32 31 31 31 32 34 35 35 35 35
44 41 37 34 34 35 34 32 31 31 31 30 30 30 31 32 33 36 38 41 44 45 42 38 37 38 37 37 36 34 30 26 24 23 22 23 28 31 32 30 28 27 26 24 24 24 23 25 27 29 33 35 34 33 33 31 31 32 34 35 35 35 35
Wind_Direction
261 254 248 245 239 232 227 225 226 226 223 218 213 209 207 206 206 207 210 211 209 207 209 211 212 214 216 217 216 215 215 213 210 208 208 210 212 215 213 211 212 214 215 218 221 220 219 221 221 223 226 222 220 229 236 238 239 242 237 230 228 224 232
254 249 244 243 241 238 232 228 228 228 225 220 215 211 208 207 206 206 208 211 210 208 209 211 213 215 216 217 217 217 218 218 213 209 208 209 212 215 216 214 212 213 212 212 216 220 222 222 222 224 227 226 225 227 232 237 241 244 242 237 237 233 240
241 239 237 237 238 239 237 232 230 230 228 222 217 213 210 207 207 206 207 210 211 210 210 211 213 215 217 218 218 217 218 219 218 213 210 210 211 214 217 218 216 213 211 210 211 215 221 224 224 226 227 227 228 229 230 233 238 242 241 238 238 239 245
227 232 236 238 238 237 238 236 234 233 231 226 219 216 214 211 209 208 207 208 211 211 211 212 213 216 218 219 219 218 218 219 220 218 213 211 212 213 217 219 220 218 214 212 213 215 220 225 226 228 229 228 230 231 231 232 236 240 242 242 240 241 244
233 234 235 239 238 234 232 232 234 235 234 231 225 220 218 216 213 210 208 208 210 212 213 213 215 217 219 220 220 219 219 219 219 219 217 214 213 213 215 218 221 223 221 218 218 219 222 226 228 229 231 232 233 235 236 236 236 239 242 245 245 244 245
247 243 239 240 240 239 235 231 232 234 235 235 234 228 223 221 218 213 210 209 210 212 213 213 215 218 221 222 222 221 220 219 218 218 218 217 216 215 215 216 219 223 225 224 224 223 224 228 230 231 233 235 236 237 239 240 240 239 241 244 246 247 248
251 248 248 247 246 247 245 240 235 234 234 236 238 236 230 226 223 217 213 211 209 210 212 213 214 216 219 222 223 223 221 221 220 218 218 219 219 218 217 217 219 221 224 225 225 225 226 228 230 232 233 236 237 238 240 242 242 242 241 242 244 246 249
248 248 250 249 245 248 253 252 247 241 236 233 235 237 234 230 227 222 216 212 210 210 211 213 214 216 218 220 222 224 223 223 223 222 221 220 220 220 219 220 221 222 224 225 225 227 228 228 229 230 232 235 237 238 239 242 244 245 244 243 243 244 247
246 246 247 244 236 243 254 258 256 250 243 238 237 239 238 235 231 226 220 215 212 212 211 212 214 215 218 219 222 224 225 225 225 224 225 224 222 221 221 223 224 224 225 224 225 227 228 229 230 229 230 232 234 236 238 241 243 246 248 248 247 246 247
241 241 244 242 233 235 248 255 257 253 247 243 240 239 240 239 236 231 226 219 216 213 211 212 213 215 218 220 222 224 226 227 226 226 227 227 226 224 223 224 226 227 227 225 224 226 227 229 231 231 230 229 230 232 235 238 241 243 246 248 249 251 252
234 232 237 238 230 229 239 246 250 251 250 247 244 241 241 241 241 239 233 226 220 217 214 213 214 216 219 221 223 225 227 228 228 227 227 227 227 226 224 224 226 229 230 229 227 227 227 228 231 232 232 230 228 229 232 234 238 241 243 244 245 247 251
236 229 229 229 225 226 232 239 244 247 247 247 246 244 242 241 243 244 241 235 228 222 219 218 217 218 219 221 224 225 227 229 229 229 228 227 228 227 226 226 227 229 231 231 231 230 229 230 231 233 234 232 231 231 231 233 236 239 242 243 243 243 245
258 238 230 225 223 224 228 234 241 245 245 243 243 245 243 240 241 244 243 239 234 227 223 221 220 220 220 221 223 225 227 229 230 231 230 229 229 229 228 228 228 229 231 232 233 233 233 233 233 235 236 235 235 234 233 234 235 236 239 241 244 245 245
293 263 244 232 225 225 229 233 239 245 246 243 240 240 241 240 241 243 243 241 236 232 227 222 221 221 221 221 222 224 227 229 231 232 232 232 232 232 231 231 231 231 232 233 234 234 235 235 235 237 238 238 238 237 236 236 235 235 236 238 241 244 246
305 287 264 248 234 228 229 233 238 243 245 244 239 236 236 237 238 240 241 240 238 234 229 225 224 222 222 222 222 224 226 229 232 233 233 233 233 234 234 233 233 233 234 235 236 236 236 236 237 238 238 239 240 239 239 238 236 235 235 237 239 242 244
286 280 267 257 246 236 231 232 237 242 244 243 240 235 233 234 235 237 238 238 238 236 233 230 227 225 224 223 222 223 226 228 231 233 233 235 235 235 236 236 236 235 235 237 238 238 239 238 238 238 239 239 240 240 240 240 239 238 236 236 238 240 242
261 235 234 239 240 239 236 234 236 240 243 244 241 237 233 233 235 236 236 236 235 234 235 234 232 230 228 225 223 224 225 226 228 230 232 234 235 236 237 239 239 239 238 238 238 239 240 240 240 240 240 241 241 241 242 242 241 241 239 238 238 239 241
359 167 182 199 212 224 235 241 241 239 241 243 243 240 237 235 236 237 237 235 233 231 232 233 233 232 230 228 226 225 224 224 225 227 229 231 234 236 238 239 240 241 241 240 240 240 241 242 242 242 243 243 243 243 244 244 244 243 242 241 240 239 240
332 348 290 194 187 194 212 232 242 242 242 242 242 243 241 239 239 238 238 237 235 232 231 231 230 229 228 227 224 221 220 221 221 222 224 226 229 233 236 238 239 241 242 243 243 243 242 243 244 245 245 246 246 246 247 247 247 246 246 244 242 241 241
295 344 359 339 207 181 186 200 219 232 236 239 241 243 244 243 242 242 240 238 236 235 233 232 230 230 228 227 225 222 220 221 223 223 223 223 224 227 231 235 238 240 242 244 244 245 245 245 246 247 247 248 249 249 249 249 248 248 248 247 244 242 242
257 276 9 8 356 195 182 185 195 208 219 228 234 240 244 245 245 245 243 241 238 235 232 230 229 229 230 230 230 227 224 223 226 226 224 223 223 225 228 232 237 239 241 242 244 245 247 248 248 249 249 250 251 251 251 249 248 247 247 247 247 245 244
246 237 251 7 52 77 115 187 195 197 205 213 218 228 239 244 246 248 247 244 240 236 232 229 226 225 226 226 227 225 222 223 226 225 223 223 224 227 229 231 234 237 239 241 243 245 247 248 249 250 251 252 253 253 253 251 249 248 247 247 247 246 246
242 238 233 231 204 85 85 70 251 211 207 209 210 217 228 234 236 241 244 243 242 243 242 239 235 233 229 223 220 220 220 222 224 223 222 223 224 227 230 230 231 233 235 238 240 243 245 247 249 250 250 251 252 253 254 253 251 249 247 246 245 245 246
245 242 233 228 226 216 171 33 347 268 219 215 218 223 227 227 227 233 243 246 245 246 246 243 242 243 242 234 226 221 223 226 225 222 221 221 222 224 227 229 228 228 230 233 237 240 243 245 246 246 247 248 250 252 253 252 251 250 249 246 245 245 246
253 254 246 235 227 224 233 251 269 276 262 244 239 238 237 236 233 235 246 249 244 241 241 240 239 241 244 244 237 227 225 228 225 220 221 222 222 222 223 224 224 224 226 230 234 237 240 242 243 244 246 247 249 250 251 250 250 250 250 248 246 247 246
252 256 257 250 238 233 237 246 255 263 276 286 276 248 237 240 238 232 230 232 234 234 236 239 241 241 243 246 244 236 228 225 221 219 222 225 223 221 220 220 221 223 225 228 232 234 236 238 240 243 245 247 248 249 249 249 248 248 249 249 248 248 248
249 252 257 257 251 243 242 249 256 259 268 279 280 266 251 242 219 213 218 222 228 231 231 234 240 243 244 247 249 244 234 225 220 219 223 226 226 224 223 222 222 225 227 229 231 232 232 234 237 241 243 246 248 249 249 248 247 246 247 248 247 248 249
255 253 255 258 257 252 249 250 256 260 265 271 274 277 277 264 237 218 211 213 225 232 235 236 236 237 241 244 246 248 244 236 229 224 223 227 228 228 228 228 228 230 231 233 234 234 233 234 236 239 242 245 247 249 249 249 248 247 247 247 247 248 249
264 259 257 257 259 260 257 254 255 259 263 266 268 272 277 274 261 243 226 214 232 245 251 251 244 238 238 238 238 243 249 249 242 235 232 232 233 232 232 232 235 237 236 237 238 238 237 237 237 239 242 244 247 249 250 250 250 250 249 249 249 248 249
269 268 264 260 258 259 260 258 257 258 260 263 267 268 270 272 269 258 243 232 242 264 273 273 264 252 246 244 241 241 246 249 247 245 246 245 242 241 240 240 242 243 240 240 243 244 244 243 242 242 243 245 248 250 252 253 253 253 252 251 251 251 251
266 269 269 266 262 259 258 258 259 259 260 263 266 268 269 270 270 268 260 251 252 264 275 281 277 263 252 251 251 247 247 251 251 250 252 253 251 249 247 246 248 248 245 243 245 248 250 250 248 246 246 247 249 251 252 254 254 254 253 252 252 252 252
260 264 268 268 266 263 259 258 258 258 260 264 267 268 268 268 271 273 272 269 268 268 271 276 279 271 256 247 247 248 249 253 253 249 248 250 254 255 254 251 251 251 251 248 246 248 252 253 252 249 247 246 248 251 251 252 253 253 253 253 253 253 253
254 258 262 265 266 264 261 259 258 256 256 260 265 267 266 265 268 272 274 275 274 271 270 272 273 271 262 249 244 245 251 257 258 253 247 245 246 250 252 252 250 249 248 248 248 249 252 254 253 251 248 246 248 250 251 251 251 251 251 252 253 253 254
249 250 254 258 262 263 261 259 258 257 255 253 258 265 266 264 266 269 271 274 275 271 270 272 269 267 265 256 248 244 248 261 267 263 256 252 249 249 252 257 258 255 253 254 255 253 253 254 253 252 251 249 248 249 250 251 251 251 251 253 255 255 255
249 245 245 249 255 258 259 257 255 256 256 252 251 257 262 263 265 268 269 271 274 272 271 273 271 266 263 259 253 249 249 260 272 268 260 256 256 257 260 264 267 266 264 263 260 257 255 255 253 252 251 250 249 249 251 252 253 253 254 255 256 256 255
250 245 241 241 246 251 254 255 253 252 253 252 249 251 254 257 261 265 267 268 271 271 272 274 274 270 265 260 257 256 257 264 272 272 264 256 253 256 260 263 266 267 265 262 261 259 257 256 256 254 252 251 251 252 254 254 252 251 251 252 254 255 254
250 247 242 239 240 245 249 251 250 250 250 248 246 247 249 251 254 259 263 266 268 269 270 273 274 273 268 262 259 259 262 267 272 276 273 263 256 256 258 261 264 266 265 264 264 261 259 258 257 257 256 255 254 255 256 255 252 249 249 251 253 255 255
249 247 245 241 239 241 245 247 247 247 246 244 242 242 245 248 250 252 256 260 264 266 268 271 273 272 268 266 263 259 260 266 273 277 277 269 262 259 258 259 263 265 264 265 266 264 262 260 258 257 257 258 258 259 260 259 255 250 250 251 253 254 255
Height
3154 3156 3159 3161 3163 3165 3167 3169 3171 3173 3175 3177 3180 3182 3185 3187 3190 3192 3195 3197 3199 3201 3203 3206 3208 3210 3211 3213 3215 3217 3219 3220 3221 3223 3225 3227 3229 3230 3232 3233 3235 3236 3238 3239 3241 3242 3243 3243 3244 3245 3246 3247 3248 3249 3250 3250 3251 3252 3253 3253 3253 3254 3254
3151 3153 3156 3158 3160 3163 3165 3167 3169 3171 3173 3175 3178 3180 3183 3185 3187 3190 3193 3195 3197 3200 3202 3204 3206 3209 3211 3212 3214 3216 3218 3219 3220 3222 3224 3226 3228 3229 3231 3232 3234 3236 3237 3238 3240 3241 3242 3243 3244 3245 3246 3247 3247 3248 3249 3250 3251 3252 3252 3253 3253 3253 3254
3150 3151 3153 3156 3158 3161 3163 3165 3167 3169 3171 3173 3176 3178 3180 3183 3185 3188 3191 3193 3196 3198 3200 3202 3205 3207 3209 3211 3213 3215 3216 3218 3219 3221 3222 3224 3226 3228 3230 3232 3233 3234 3236 3237 3238 3240 3241 3242 3243 3244 3245 3246 3247 3248 3249 3250 3250 3251 3252 3252 3253 3253 3254
3149 3150 3152 3154 3156 3159 3161 3163 3165 3167 3169 3172 3174 3176 3179 3181 3184 3187 3189 3192 3194 3196 3198 3200 3203 3205 3208 3209 3211 3213 3215 3217 3218 3220 3222 3223 3225 3227 3229 3230 3232 3233 3234 3236 3237 3238 3239 3241 3242 3243 3245 3246 3247 3247 3248 3249 3250 3251 3251 3252 3253 3253 3253
3147 3149 3150 3152 3154 3156 3158 3160 3163 3165 3167 3170 3172 3175 3177 3180 3183 3185 3188 3190 3192 3195 3197 3199 3202 3204 3206 3208 3210 3212 3213 3215 3217 3219 3220 3222 3223 3225 3226 3228 3230 3232 3233 3235 3236 3237 3238 3239 3241 3242 3244 3245 3246 3247 3248 3249 3250 3250 3251 3252 3252 3253 3253
3145 3147 3148 3150 3152 3154 3156 3158 3160 3163 3165 3168 3171 3173 3176 3178 3180 3183 3186 3188 3191 3193 3195 3197 3199 3202 3204 3206 3208 3210 3212 3214 3215 3217 3219 3220 3221 3223 3225 3227 3228 3230 3232 3233 3234 3235 3237 3238 3239 3241 3242 3244 3245 3246 3247 3248 3249 3250 3250 3251 3252 3252 3253
3143 3145 3146 3148 3150 3152 3154 3156 3158 3161 3164 3167 3169 3171 3173 3175 3178 3181 3184 3186 3188 3191 3193 3195 3197 3199 3201 3204 3206 3208 3210 3212 3213 3215 3216 3218 3219 3221 3223 3225 3226 3228 3230 3231 3232 3233 3235 3236 3238 3239 3240 3242 3243 3244 3246 3247 3248 3249 3250 3250 3251 3252 3252
3141 3142 3144 3146 3147 3149 3151 3154 3157 3159 3162 3165 3167 3168 3171 3173 3176 3179 3181 3184 3186 3188 3191 3193 3195 3197 3199 3202 3204 3206 3208 3210 3212 3213 3214 3216 3217 3219 3221 3223 3224 3226 3228 3229 3230 3232 3233 3234 3236 3237 3238 3240 3241 3243 3244 3246 3247 3247 3248 3249 3250 3251 3252
3139 3140 3141 3142 3144 3146 3148 3151 3154 3157 3159 3162 3164 3167 3169 3171 3173 3176 3179 3182 3184 3186 3189 3191 3193 3195 3198 3200 3202 3204 3206 3208 3210 3211 3212 3214 3215 3217 3219 3221 3223 3224 3225 3227 3229 3230 3231 3232 3234 3235 3236 3238 3239 3241 3242 3244 3245 3246 3247 3248 3249 3250 3251
3137 3138 3139 3140 3141 3143 3145 3148 3151 3154 3156 3159 3161 3165 3167 3168 3171 3174 3177 3180 3182 3184 3187 3189 3191 3194 3195 3197 3199 3201 3203 3205 3207 3209 3210 3212 3214 3216 3218 3219 3221 3222 3223 3225 3226 3227 3229 3230 3231 3232 3234 3235 3237 3238 3240 3242 3243 3244 3245 3247 3247 3248 3249
3135 3136 3137 3138 3140 3141 3143 3145 3148 3150 3153 3156 3158 3161 3164 3166 3168 3172 3175 3177 3180 3183 3185 3187 3189 3191 3193 3195 3197 3199 3201 3203 3204 3206 3208 3210 3212 3214 3216 3217 3218 3220 3221 3223 3224 3225 3227 3228 3229 3230 3231 3233 3234 3236 3238 3239 3241 3242 3243 3245 3246 3247 3247
3132 3133 3135 3136 3137 3139 3141 3143 3145 3148 3150 3153 3155 3158 3161 3163 3166 3168 3171 3174 3178 3181 3183 3185 3187 3189 3191 3193 3194 3196 3198 3200 3202 3204 3206 3207 3209 3211 3213 3214 3216 3217 3219 3221 3222 3223 3225 3226 3226 3227 3229 3230 3232 3233 3235 3237 3238 3239 3241 3242 3243 3244 3245
3131 3131 3132 3133 3135 3137 3139 3141 3143 3145 3147 3150 3152 3155 3158 3161 3163 3166 3168 3171 3174 3177 3180 3182 3184 3186 3188 3190 3192 3194 3195 3197 3199 3201 3203 3205 3207 3209 3210 3212 3213 3215 3216 3218 3219 3221 3222 3223 3224 3225 3227 3228 3229 3230 3232 3233 3235 3236 3238 3239 3241 3242 3243
3130 3130 3131 3132 3133 3134 3136 3138 3141 3143 3145 3147 3149 3152 3154 3157 3160 3163 3165 3168 3171 3174 3176 3179 3181 3183 3185 3187 3189 3191 3193 3195 3197 3198 3200 3202 3204 3206 3207 3209 3210 3212 3214 3215 3216 3218 3219 3221 3222 3223 3224 3226 3227 3228 3229 3230 3231 3233 3235 3236 3238 3239 3241
3130 3130 3130 3131 3132 3133 3135 3137 3139 3140 3142 3144 3147 3149 3151 3154 3156 3159 3162 3164 3167 3170 3173 3175 3178 3180 3182 3184 3186 3188 3190 3192 3194 3195 3197 3199 3201 3202 3204 3206 3207 3209 3211 3212 3213 3215 3217 3218 3219 3220 3221 3223 3224 3226 3226 3227 3228 3230 3232 3234 3235 3236 3238
3131 3130 3130 3131 3132 3132 3133 3135 3137 3138 3140 3142 3144 3146 3149 3151 3153 3155 3158 3160 3163 3166 3169 3171 3174 3176 3178 3180 3183 3185 3187 3189 3190 3192 3194 3195 3197 3199 3201 3203 3204 3206 3207 3209 3210 3212 3214 3215 3216 3217 3218 3220 3221 3222 3223 3224 3226 3227 3229 3231 3232 3234 3235
3131 3130 3130 3130 3131 3132 3133 3134 3135 3136 3138 3140 3142 3144 3146 3148 3150 3153 3155 3157 3160 3163 3165 3167 3170 3172 3174 3177 3179 3181 3183 3185 3186 3188 3190 3191 3193 3195 3197 3199 3201 3202 3204 3205 3207 3209 3210 3211 3213 3214 3215 3216 3218 3219 3220 3221 3223 3225 3227 3228 3229 3231 3232
3131 3130 3130 3130 3131 3132 3133 3133 3134 3135 3136 3138 3140 3142 3144 3146 3148 3150 3152 3154 3156 3159 3161 3163 3165 3168 3170 3172 3175 3177 3178 3180 3182 3183 3185 3187 3189 3191 3193 3195 3197 3198 3200 3202 3203 3205 3206 3208 3209 3210 3212 3213 3214 3216 3217 3218 3220 3222 3223 3225 3226 3228 3229
3131 3130 3130 3130 3130 3131 3132 3133 3133 3134 3135 3136 3138 3139 3141 3143 3146 3148 3150 3151 3153 3155 3157 3159 3161 3163 3166 3168 3170 3172 3174 3175 3176 3178 3180 3183 3185 3187 3189 3190 3192 3194 3196 3198 3200 3201 3202 3204 3206 3207 3208 3209 3211 3212 3213 3215 3217 3219 3220 3222 3223 3225 3226
3131 3131 3131 3130 3130 3130 3131 3131 3132 3132 3134 3135 3136 3137 3139 3141 3143 3145 3147 3148 3150 3151 3153 3155 3157 3160 3163 3165 3167 3169 3170 3171 3172 3174 3176 3178 3180 3182 3184 3185 3188 3190 3192 3194 3195 3196 3198 3200 3202 3203 3205 3206 3207 3209 3210 3212 3214 3216 3217 3218 3220 3221 3222
3130 3131 3132 3131 3131 3130 3130 3130 3130 3131 3132 3133 3134 3135 3136 3138 3140 3141 3143 3144 3145 3146 3148 3150 3153 3156 3159 3162 3163 3165 3167 3169 3171 3172 3173 3174 3175 3177 3179 3181 3183 3186 3188 3189 3191 3193 3195 3196 3198 3199 3201 3203 3204 3205 3206 3208 3211 3213 3214 3215 3217 3218 3219
3129 3130 3132 3132 3131 3131 3130 3129 3129 3129 3130 3131 3133 3133 3134 3136 3137 3138 3139 3139 3139 3141 3143 3146 3148 3150 3153 3156 3159 3161 3162 3165 3167 3169 3170 3171 3172 3173 3175 3177 3179 3182 3184 3185 3187 3189 3190 3192 3193 3195 3197 3199 3200 3201 3202 3205 3207 3209 3210 3212 3214 3215 3215
3128 3129 3130 3131 3131 3130 3130 3129 3129 3129 3128 3129 3130 3131 3132 3133 3134 3135 3135 3134 3136 3140 3143 3147 3148 3148 3148 3150 3153 3156 3158 3160 3162 3163 3165 3167 3168 3169 3171 3173 3175 3178 3180 3181 3183 3185 3186 3188 3189 3191 3193 3194 3195 3197 3199 3201 3204 3205 3207 3209 3210 3211 3212
3126 3127 3127 3129 3130 3130 3130 3130 3130 3129 3128 3128 3129 3130 3131 3131 3131 3131 3131 3132 3136 3141 3144 3146 3147 3148 3149 3148 3148 3150 3153 3156 3157 3158 3160 3161 3163 3165 3168 3169 3171 3174 3175 3177 3179 3180 3182 3184 3185 3186 3188 3189 3191 3193 3195 3197 3200 3201 3203 3205 3206 3207 3208
3124 3124 3125 3127 3128 3129 3129 3129 3130 3129 3128 3128 3128 3129 3129 3130 3129 3129 3130 3133 3136 3139 3141 3142 3144 3146 3147 3148 3147 3147 3148 3150 3152 3154 3155 3157 3158 3161 3163 3165 3167 3169 3171 3173 3174 3176 3178 3179 3180 3182 3184 3185 3187 3189 3191 3193 3196 3197 3199 3201 3202 3203 3204
3121 3122 3123 3124 3126 3127 3127 3128 3128 3128 3128 3128 3128 3128 3128 3128 3128 3127 3129 3132 3134 3136 3137 3139 3140 3142 3144 3146 3147 3146 3145 3145 3147 3148 3151 3153 3155 3157 3159 3161 3163 3165 3167 3169 3171 3172 3174 3175 3176 3178 3180 3181 3183 3185 3186 3189 3191 3193 3195 3197 3199 3199 3201
3119 3120 3120 3121 3122 3124 3125 3125 3125 3126 3126 3126 3127 3128 3127 3127 3128 3127 3128 3130 3132 3134 3134 3136 3137 3139 3142 3145 3147 3146 3144 3142 3142 3144 3146 3149 3152 3154 3156 3158 3160 3161 3163 3165 3167 3168 3170 3171 3172 3174 3176 3177 3179 3181 3182 3184 3187 3189 3191 3193 3194 3196 3196
3116 3117 3118 3118 3119 3120 3122 3123 3123 3123 3123 3124 3126 3126 3126 3127 3127 3127 3127 3129 3130 3131 3132 3133 3134 3137 3140 3141 3143 3144 3143 3141 3140 3141 3142 3145 3148 3151 3153 3155 3157 3158 3160 3162 3163 3164 3166 3168 3169 3170 3172 3173 3175 3176 3179 3181 3183 3185 3187 3189 3190 3192 3192
3111 3113 3115 3116 3116 3117 3118 3119 3120 3120 3120 3121 3123 3124 3125 3126 3127 3127 3127 3128 3129 3129 3130 3131 3131 3133 3136 3136 3137 3140 3141 3140 3139 3139 3139 3141 3144 3147 3150 3153 3154 3155 3157 3158 3160 3162 3163 3165 3166 3167 3168 3170 3171 3173 3175 3177 3179 3181 3183 3185 3187 3188 3189
3106 3107 3110 3112 3113 3114 3114 3115 3116 3117 3117 3118 3120 3121 3123 3123 3124 3125 3125 3125 3126 3128 3130 3130 3130 3131 3132 3132 3133 3137 3138 3137 3137 3137 3137 3139 3142 3144 3147 3149 3151 3152 3153 3155 3157 3159 3160 3162 3163 3164 3165 3167 3168 3170 3172 3173 3175 3177 3179 3181 3183 3184 3185
3102 3103 3104 3106 3109 3110 3111 3112 3113 3114 3114 3115 3116 3118 3119 3119 3120 3121 3122 3123 3123 3125 3128 3129 3129 3129 3130 3130 3131 3134 3135 3134 3135 3135 3136 3137 3139 3141 3143 3145 3147 3149 3151 3152 3153 3155 3157 3158 3160 3161 3162 3164 3165 3167 3169 3170 3172 3173 3175 3177 3179 3180 3182
3099 3099 3099 3101 3103 3105 3107 3108 3110 3111 3112 3113 3113 3114 3115 3115 3116 3117 3120 3121 3121 3122 3124 3126 3127 3128 3128 3128 3129 3130 3131 3131 3132 3133 3133 3134 3136 3137 3139 3141 3143 3146 3149 3150 3150 3151 3153 3154 3156 3157 3159 3160 3162 3164 3166 3167 3168 3170 3172 3173 3175 3176 3178
3095 3096 3096 3096 3097 3099 3102 3104 3106 3107 3109 3110 3111 3111 3111 3112 3113 3114 3116 3118 3119 3119 3121 3123 3124 3125 3126 3126 3126 3127 3127 3127 3128 3129 3129 3130 3131 3134 3137 3140 3142 3145 3148 3149 3148 3147 3149 3151 3152 3153 3155 3157 3159 3161 3162 3163 3165 3166 3168 3169 3171 3173 3175
3091 3091 3092 3092 3092 3093 3095 3098 3101 3103 3104 3106 3108 3108 3108 3109 3110 3111 3112 3114 3116 3117 3118 3119 3120 3121 3122 3123 3123 3124 3124 3124 3125 3125 3126 3127 3128 3131 3134 3137 3139 3141 3144 3144 3143 3143 3145 3146 3147 3149 3151 3153 3155 3156 3157 3159 3161 3163 3165 3166 3168 3169 3171
3086 3086 3087 3088 3088 3088 3089 3092 3095 3097 3099 3102 3104 3104 3105 3106 3107 3108 3109 3110 3112 3113 3114 3115 3116 3117 3118 3119 3120 3120 3120 3121 3122 3123 3124 3125 3127 3129 3131 3133 3134 3135 3137 3138 3138 3139 3141 3142 3143 3145 3147 3148 3150 3151 3153 3155 3157 3160 3161 3162 3163 3165 3166
3079 3081 3082 3083 3083 3083 3084 3086 3088 3091 3094 3097 3099 3100 3101 3103 3104 3105 3105 3106 3107 3109 3110 3110 3112 3113 3114 3115 3116 3116 3117 3118 3119 3120 3121 3123 3124 3126 3128 3130 3131 3131 3132 3134 3135 3136 3136 3137 3138 3141 3142 3143 3145 3147 3148 3150 3153 3155 3155 3156 3157 3159 3161
3072 3074 3076 3078 3078 3078 3079 3080 3082 3084 3088 3091 3093 3095 3097 3098 3100 3101 3102 3102 3103 3104 3105 3106 3107 3108 3109 3111 3112 3113 3113 3114 3115 3116 3118 3119 3121 3122 3124 3125 3126 3127 3128 3129 3130 3131 3132 3132 3134 3136 3137 3138 3140 3142 3143 3145 3148 3149 3149 3150 3152 3154 3156
3065 3067 3070 3072 3073 3073 3074 3075 3077 3078 3081 3084 3087 3089 3091 3093 3095 3096 3098 3098 3099 3100 3101 3102 3103 3103 3104 3106 3107 3108 3109 3110 3111 3112 3113 3115 3116 3117 3118 3120 3121 3123 3124 3125 3126 3126 3127 3128 3129 3131 3132 3133 3134 3137 3138 3141 3142 3143 3143 3145 3146 3148 3150